CW1035 Weather Reports


Display with metric or nautical units.
time (UTC)temp
F
wind
direction
speed
MPH
gust
MPH
rain 1hr
in
rain 24hr
in
rain mn
in
humidity
%
barometer
mb
20260906205740 64 323 2.0 10.0 0.00 0.00 0.00 79 1016.2
20260906204739 64 236 3.0 9.0 0.00 0.00 0.00 77 1016.2
20260906204239 64 266 5.0 8.0 0.00 0.00 0.00 79 1016.2
20260906203739 63 221 1.0 10.0 0.00 0.00 0.00 79 1016.3
20260906202238 63 240 8.0 11.0 0.00 0.00 0.00 78 1016.5
20260906201738 63 344 1.0 10.0 0.00 0.00 0.00 78 1016.5
20260906201238 63 309 7.0 10.0 0.00 0.00 0.00 77 1016.5
20260906200738 63 36 4.0 10.0 0.00 0.00 0.00 78 1016.5
20260906200238 63 282 3.0 11.0 0.00 0.00 0.00 78 1016.5
20260906195738 63 332 5.0 11.0 0.00 0.00 0.00 77 1016.7
20260906195238 63 289 3.0 11.0 0.00 0.00 0.00 78 1016.7
20260906194738 63 295 5.0 11.0 0.00 0.00 0.00 78 1016.7
20260906194237 63 288 3.0 10.0 0.00 0.00 0.00 77 1016.7
20260906193738 63 266 3.0 9.0 0.00 0.00 0.00 79 1016.8
20260906193237 62 302 3.0 10.0 0.00 0.00 0.00 78 1016.8
20260906192738 62 349 6.0 13.0 0.00 0.00 0.00 78 1016.8
20260906192237 62 279 10.0 13.0 0.00 0.00 0.00 79 1016.9
20260906191237 62 271 1.0 9.0 0.00 0.00 0.00 79 1017.2
20260906185237 62 287 4.0 11.0 0.00 0.00 0.00 78 1017.2
20260906184736 62 323 1.0 8.0 0.00 0.00 0.00 77 1017.3
20260906184236 62 39 3.0 9.0 0.00 0.00 0.00 78 1017.3
20260906183736 62 347 3.0 9.0 0.00 0.00 0.00 78 1017.3
20260906183236 62 274 9.0 12.0 0.00 0.00 0.00 77 1017.4
20260906182736 62 328 4.0 12.0 0.00 0.00 0.00 76 1017.4
20260906182236 62 316 5.0 8.0 0.00 0.00 0.00 76 1017.5
20260906180736 62 292 5.0 8.0 0.00 0.00 0.00 77 1017.6
20260906180236 62 271 5.0 7.0 0.00 0.00 0.00 78 1017.5
20260906175735 62 278 6.0 9.0 0.00 0.00 0.00 77 1017.5
20260906175235 61 358 3.0 11.0 0.00 0.00 0.00 77 1017.5
20260906174735 61 284 3.0 11.0 0.00 0.00 0.00 78 1017.5
20260906174235 61 267 4.0 11.0 0.00 0.00 0.00 78 1017.5
20260906173235 60 333 3.0 11.0 0.00 0.00 0.00 79 1017.5
20260906172234 60 290 3.0 9.0 0.00 0.00 0.00 79 1017.5
20260906171304 60 354 4.0 11.0 0.00 0.00 0.00 78 1017.6
20260906170734 59 274 5.0 10.0 0.00 0.00 0.00 79 1017.6
20260906170234 59 282 3.0 10.0 0.00 0.00 0.00 80 1017.5
20260906165734 59 306 5.0 10.0 0.00 0.00 0.00 80 1017.6
20260906165234 59 347 6.0 10.0 0.00 0.00 0.00 81 1017.7
20260906164804 58 285 5.0 11.0 0.00 0.00 0.00 83 1017.7
20260906164233 58 291 8.0 11.0 0.00 0.00 0.00 83 1017.8
20260906163733 58 291 7.0 12.0 0.00 0.00 0.00 84 1017.8
20260906163303 57 289 4.0 13.0 0.00 0.00 0.00 84 1017.8
20260906162733 57 279 7.0 13.0 0.00 0.00 0.00 84 1017.9
20260906162233 57 279 5.0 13.0 0.00 0.00 0.00 85 1017.8
20260906161803 57 326 5.0 13.0 0.00 0.00 0.00 85 1017.8
20260906161233 57 270 8.0 11.0 0.00 0.00 0.00 85 1017.8
20260906160303 57 278 9.0 12.0 0.00 0.00 0.00 85 1017.8
20260906155732 57 304 3.0 12.0 0.00 0.00 0.00 85 1017.8
20260906155232 56 297 4.0 11.0 0.00 0.00 0.00 85 1017.8
20260906154733 56 285 8.0 11.0 0.00 0.00 0.00 85 1017.8
20260906154232 56 359 3.0 11.0 0.00 0.00 0.00 86 1017.7
20260906153802 55 295 1.0 9.0 0.00 0.00 0.00 86 1017.8
20260906153302 55 338 3.0 8.0 0.00 0.00 0.00 87 1017.8
20260906152302 54 290 3.0 8.0 0.00 0.00 0.00 88 1017.7
20260906151732 54 298 7.0 8.0 0.00 0.00 0.00 88 1017.7
20260906151301 54 307 6.0 9.0 0.00 0.00 0.00 88 1017.7
20260906150801 54 290 3.0 9.0 0.00 0.00 0.00 88 1017.7
20260906150301 54 296 4.0 10.0 0.00 0.00 0.00 88 1017.6
20260906145801 54 307 4.0 12.0 0.00 0.00 0.00 88 1017.6
20260906145301 54 293 6.0 12.0 0.00 0.00 0.00 88 1017.6
20260906144801 53 300 4.0 9.0 0.00 0.00 0.00 88 1017.4
20260906144301 53 299 4.0 10.0 0.00 0.00 0.00 89 1017.4
20260906143801 53 302 3.0 10.0 0.00 0.00 0.00 90 1017.4
20260906142301 52 255 6.0 7.0 0.00 0.00 0.00 91 1017.5
20260906141800 52 293 2.0 7.0 0.00 0.00 0.00 92 1017.5
20260906141300 52 274 1.0 7.0 0.00 0.00 0.00 92 1017.5
20260906140800 52 313 1.0 5.0 0.00 0.00 0.00 92 1017.5
20260906140300 52 276 2.0 5.0 0.00 0.00 0.00 92 1017.5
20260906135800 52 271 2.0 6.0 0.00 0.00 0.00 92 1017.4
20260906135300 52 288 0.0 7.0 0.00 0.00 0.00 92 1017.3
20260906134259 52 282 2.0 5.0 0.00 0.00 0.00 92 1017.3
20260906133759 52 274 4.0 5.0 0.00 0.00 0.00 92 1017.3
20260906133259 52 262 3.0 5.0 0.00 0.00 0.00 91 1017.2
20260906132759 52 280 2.0 5.0 0.00 0.00 0.00 91 1017.2
20260906132259 52 288 1.0 5.0 0.00 0.00 0.00 91 1017.2
20260906131759 52 274 2.0 5.0 0.00 0.00 0.00 91 1017.2
20260906131259 52 276 1.0 5.0 0.00 0.00 0.00 90 1017.2
20260906130758 53 305 3.0 6.0 0.00 0.00 0.00 90 1017.2
20260906125758 53 309 2.0 5.0 0.00 0.00 0.00 89 1017.2
20260906124258 53 278 4.0 8.0 0.00 0.00 0.00 88 1017.2
20260906123758 53 288 2.0 8.0 0.00 0.00 0.00 87 1017.3
20260906123258 54 245 2.0 5.0 0.00 0.00 0.00 87 1017.4
20260906122758 54 285 4.0 5.0 0.00 0.00 0.00 87 1017.3
20260906121257 54 268 3.0 7.0 0.00 0.00 0.00 87 1017.3
20260906120758 54 282 4.0 7.0 0.00 0.00 0.00 86 1017.4
20260906120257 55 281 3.0 7.0 0.00 0.00 0.00 86 1017.5
20260906115757 55 280 4.0 7.0 0.00 0.00 0.00 86 1017.6
20260906115257 55 274 3.0 8.0 0.00 0.00 0.00 86 1017.6
20260906114757 55 274 3.0 8.0 0.00 0.00 0.00 86 1017.5
20260906114257 55 282 3.0 8.0 0.00 0.00 0.00 86 1017.5
20260906113757 55 281 4.0 8.0 0.00 0.00 0.00 86 1017.4
20260906113256 55 257 4.0 8.0 0.00 0.00 0.00 86 1017.4
20260906112756 55 290 1.0 9.0 0.00 0.00 0.00 87 1017.4
20260906112256 55 281 3.0 9.0 0.00 0.00 0.00 87 1017.4
20260906111757 55 277 4.0 6.0 0.00 0.00 0.00 87 1017.5
20260906111256 56 256 2.0 6.0 0.00 0.00 0.00 87 1017.5
20260906110756 56 265 5.0 7.0 0.00 0.00 0.00 87 1017.6
20260906105756 56 288 6.0 9.0 0.00 0.00 0.00 87 1017.6
20260906105256 56 271 6.0 10.0 0.00 0.00 0.00 87 1017.5
20260906104256 55 285 7.0 9.0 0.00 0.00 0.00 88 1017.4
20260906103755 55 285 5.0 9.0 0.00 0.00 0.00 88 1017.4
20260906103255 55 281 5.0 8.0 0.00 0.00 0.00 88 1017.4
20260906102755 55 266 5.0 8.0 0.00 0.00 0.00 88 1017.4
20260906102255 55 278 4.0 8.0 0.00 0.00 0.00 88 1017.3
20260906101755 54 279 8.0 8.0 0.00 0.00 0.00 88 1017.4
20260906101255 54 300 0.0 7.0 0.00 0.00 0.00 88 1017.4
20260906100755 54 256 2.0 7.0 0.00 0.00 0.00 88 1017.4
20260906095254 55 269 1.0 5.0 0.00 0.00 0.00 88 1017.6
20260906094254 55 281 2.0 8.0 0.00 0.00 0.00 88 1017.5
20260906093754 55 257 2.0 8.0 0.00 0.00 0.00 88 1017.4
20260906093254 55 277 2.0 8.0 0.00 0.00 0.00 88 1017.4
20260906092754 55 263 4.0 8.0 0.00 0.00 0.00 88 1017.4
20260906091754 55 278 2.0 8.0 0.00 0.00 0.00 87 1017.4
20260906090753 55 273 4.0 9.0 0.00 0.00 0.00 88 1017.6
20260906085753 55 285 4.0 6.0 0.00 0.00 0.00 88 1017.6
20260906085253 55 250 5.0 8.0 0.00 0.00 0.00 88 1017.6
20260906084753 55 274 3.0 8.0 0.00 0.00 0.00 88 1017.6
20260906084253 55 289 3.0 8.0 0.00 0.00 0.00 88 1017.6
20260906083253 55 283 5.0 9.0 0.00 0.00 0.00 88 1017.7
20260906082253 55 294 5.0 8.0 0.00 0.00 0.00 89 1017.8
20260906081753 55 288 5.0 8.0 0.00 0.00 0.00 89 1017.8
20260906081252 55 264 4.0 6.0 0.00 0.00 0.00 89 1017.8
20260906080752 55 279 3.0 7.0 0.00 0.00 0.00 90 1017.9
20260906080252 55 266 3.0 9.0 0.00 0.00 0.00 90 1017.9
20260906075752 54 281 5.0 9.0 0.00 0.00 0.00 91 1017.8
20260906075252 54 280 5.0 9.0 0.00 0.00 0.00 91 1017.8
20260906074752 54 291 8.0 9.0 0.00 0.00 0.00 91 1017.7
20260906074252 54 262 4.0 7.0 0.00 0.00 0.00 91 1017.7
20260906073752 54 278 4.0 7.0 0.00 0.00 0.00 91 1017.8
20260906073252 54 290 4.0 7.0 0.00 0.00 0.00 91 1017.9
20260906072752 54 285 2.0 6.0 0.00 0.00 0.00 91 1017.8
20260906071751 54 281 5.0 9.0 0.00 0.00 0.00 91 1017.8
20260906071251 54 255 3.0 8.0 0.00 0.00 0.00 91 1017.8
20260906070751 54 283 7.0 7.0 0.00 0.00 0.00 91 1017.8
20260906070251 54 262 3.0 8.0 0.00 0.00 0.00 90 1017.9
20260906065751 54 271 2.0 8.0 0.00 0.00 0.00 90 1017.9
20260906065251 55 294 3.0 7.0 0.00 0.00 0.00 90 1017.9
20260906064251 55 265 5.0 7.0 0.00 0.00 0.00 90 1017.8
20260906063750 55 294 3.0 7.0 0.00 0.00 0.00 90 1017.7
20260906063250 55 248 4.0 8.0 0.00 0.00 0.00 90 1017.7
20260906062750 55 283 6.0 9.0 0.00 0.00 0.00 90 1017.7
20260906062250 55 278 6.0 9.0 0.00 0.00 0.00 90 1017.8
20260906061750 55 283 7.0 9.0 0.00 0.00 0.00 90 1017.8
20260906061250 55 259 2.0 9.0 0.00 0.00 0.00 90 1017.8
20260906060749 55 277 3.0 6.0 0.00 0.00 0.00 89 1017.8
20260906060249 55 278 5.0 6.0 0.00 0.00 0.00 89 1017.8
20260906055749 55 293 4.0 8.0 0.00 0.00 0.00 88 1017.8
20260906055249 56 275 2.0 8.0 0.00 0.00 0.00 88 1017.8
20260906054749 56 243 3.0 6.0 0.00 0.00 0.00 87 1017.9
20260906054249 56 264 1.0 8.0 0.00 0.00 0.00 87 1017.9
20260906053248 57 282 3.0 6.0 0.00 0.00 0.00 86 1018.0
20260906052748 57 330 3.0 6.0 0.00 0.00 0.00 86 1017.9
20260906052249 57 298 1.0 5.0 0.00 0.00 0.00 85 1017.9
20260906051248 58 306 1.0 5.0 0.00 0.00 0.00 82 1018.0
20260906050248 59 253 0.0 4.0 0.00 0.00 0.00 81 1018.0
20260906044748 59 311 3.0 4.0 0.00 0.00 0.00 81 1018.0
20260906044247 59 262 1.0 5.0 0.00 0.00 0.00 81 1018.0
20260906043748 59 276 2.0 5.0 0.00 0.00 0.00 81 1018.0
20260906042747 59 282 3.0 5.0 0.00 0.00 0.00 81 1018.0
20260906040747 59 257 1.0 4.0 0.00 0.00 0.00 81 1018.2
20260906040246 59 256 2.0 4.0 0.00 0.00 0.00 81 1018.2
20260906035747 59 280 1.0 4.0 0.00 0.00 0.00 81 1018.1
20260906035246 59 248 2.0 5.0 0.00 0.00 0.00 81 1018.1
20260906034746 59 251 3.0 5.0 0.00 0.00 0.00 82 1018.2
20260906034246 58 252 1.0 4.0 0.00 0.00 0.00 82 1018.2
20260906033746 58 260 2.0 4.0 0.00 0.00 0.00 83 1018.2
20260906033246 58 267 4.0 5.0 0.00 0.00 0.00 83 1018.1
20260906032246 58 271 1.0 5.0 0.00 0.00 0.00 84 1018.2
20260906031745 58 265 3.0 5.0 0.00 0.00 0.00 84 1018.2
20260906031246 58 278 2.0 6.0 0.00 0.00 0.00 84 1018.2
20260906030746 58 251 5.0 6.0 0.00 0.00 0.00 84 1018.1
20260906025745 58 269 2.0 6.0 0.00 0.00 0.00 83 1018.1
20260906025245 59 283 4.0 7.0 0.00 0.00 0.00 83 1018.0
20260906024745 59 271 3.0 7.0 0.00 0.00 0.00 83 1018.1
20260906024245 59 281 4.0 6.0 0.00 0.00 0.00 82 1018.1
20260906023744 60 255 4.0 6.0 0.00 0.00 0.00 81 1018.2
20260906023244 60 283 3.0 6.0 0.00 0.00 0.00 80 1018.2
20260906022744 61 261 2.0 8.0 0.00 0.00 0.00 79 1018.1
20260906022244 62 281 3.0 8.0 0.00 0.00 0.00 77 1018.1
20260906021744 63 286 5.0 7.0 0.00 0.00 0.00 75 1018.1
20260906021244 63 331 3.0 5.0 0.00 0.00 0.00 74 1018.0
20260906020244 64 243 2.0 6.0 0.00 0.00 0.00 73 1017.9
20260906015744 64 272 2.0 6.0 0.00 0.00 0.00 73 1017.9
20260906015244 64 284 1.0 9.0 0.00 0.00 0.00 72 1017.8
20260906014243 64 281 3.0 7.0 0.00 0.00 0.00 72 1017.8
20260906013743 65 275 6.0 7.0 0.00 0.00 0.00 72 1017.8
20260906013243 64 275 2.0 5.0 0.00 0.00 0.00 71 1017.8
20260906012743 64 285 4.0 6.0 0.00 0.00 0.00 72 1017.7
20260906012243 64 279 3.0 8.0 0.00 0.00 0.00 73 1017.7
20260906011743 64 264 6.0 8.0 0.00 0.00 0.00 73 1017.7
20260906011243 64 274 3.0 8.0 0.00 0.00 0.00 73 1017.7
20260906010743 64 276 3.0 9.0 0.00 0.00 0.00 72 1017.7
20260906010242 64 287 4.0 9.0 0.00 0.00 0.00 72 1017.6
20260906005242 65 264 2.0 7.0 0.00 0.00 0.00 71 1017.7
20260906004742 65 278 3.0 6.0 0.00 0.00 0.00 71 1017.6
20260906003741 65 281 5.0 6.0 0.00 0.00 0.00 71 1017.7
20260906003242 65 265 5.0 6.0 0.00 0.00 0.00 71 1017.6
20260906002741 65 301 3.0 6.0 0.00 0.00 0.00 71 1017.5
20260906002241 65 302 3.0 7.0 0.00 0.00 0.00 70 1017.5
20260906001741 66 282 3.0 7.0 0.00 0.00 0.00 69 1017.5
20260906000241 68 26 0.0 2.0 0.00 0.00 0.00 61 1017.4
20260905235741 67 27 1.0 3.0 0.00 0.00 0.00 63 1017.4
20260905234740 68 78 1.0 4.0 0.00 0.00 0.00 63 1017.5
20260905234240 68 86 3.0 3.0 0.00 0.00 0.00 61 1017.5
20260905233741 68 101 1.0 2.0 0.00 0.00 0.00 64 1017.4
20260905233240 67 70 0.0 3.0 0.00 0.00 0.00 64 1017.5
20260905232740 67 75 1.0 4.0 0.00 0.00 0.00 66 1017.5
20260905232240 67 82 2.0 4.0 0.00 0.00 0.00 67 1017.5
20260905230740 66 100 0.0 3.0 0.00 0.00 0.00 69 1017.7
20260905230239 66 65 0.0 4.0 0.00 0.00 0.00 69 1017.7
20260905225739 67 83 0.0 4.0 0.00 0.00 0.00 69 1017.7
20260905225239 67 71 2.0 4.0 0.00 0.00 0.00 68 1017.7
20260905224739 67 85 2.0 4.0 0.00 0.00 0.00 69 1017.9
20260905224239 67 8 3.0 4.0 0.00 0.00 0.00 68 1017.9
20260905223739 67 26 1.0 3.0 0.00 0.00 0.00 68 1017.9
20260905223239 67 27 1.0 3.0 0.00 0.00 0.00 69 1017.9
20260905222739 66 15 0.0 3.0 0.00 0.00 0.00 70 1017.9
20260905222238 66 71 3.0 4.0 0.00 0.00 0.00 70 1017.9
20260905221738 67 36 2.0 4.0 0.00 0.00 0.00 70 1017.9
20260905220739 67 72 4.0 5.0 0.00 0.00 0.00 69 1017.9
20260905220239 67 79 2.0 5.0 0.00 0.00 0.00 69 1017.9
20260905215738 67 51 2.0 5.0 0.00 0.00 0.00 69 1018.0
20260905215238 67 40 5.0 6.0 0.00 0.00 0.00 68 1018.0
20260905214738 67 23 2.0 6.0 0.00 0.00 0.00 70 1018.0
20260905214237 66 261 3.0 6.0 0.00 0.00 0.00 70 1018.1
20260905213737 66 29 2.0 6.0 0.00 0.00 0.00 69 1018.1
20260905213238 66 262 0.0 5.0 0.00 0.00 0.00 70 1018.1
20260905212738 65 16 1.0 5.0 0.00 0.00 0.00 72 1018.1
20260905212237 65 269 4.0 5.0 0.00 0.00 0.00 70 1018.3
20260905211737 65 16 2.0 5.0 0.00 0.00 0.00 72 1018.3
20260905211237 65 25 4.0 5.0 0.00 0.00 0.00 69 1018.4
20260905210737 65 39 3.0 5.0 0.00 0.00 0.00 71 1018.4
20260905210237 65 32 2.0 6.0 0.00 0.00 0.00 72 1018.4